Time,TemperatureF,DewpointF,PressureIn,WindDirection,WindDirectionDegrees,WindSpeedMPH,WindSpeedGustMPH,Humidity,HourlyPrecipIn,Conditions,Clouds,dailyrainin,SoftwareType,DateUTC
2013-03-12 00:02:00,19.0,12.0,-100.00,NW,325,6.0,7.0,75,0.00,,,0.00,,2013-03-12 05:02:00,
2013-03-12 00:12:00,19.0,12.0,-100.00,NNW,335,4.0,7.0,75,0.00,,,0.00,,2013-03-12 05:12:00,
2013-03-12 00:22:00,19.0,12.0,-100.00,NNW,335,4.0,7.0,76,0.00,,,0.00,,2013-03-12 05:22:00,
2013-03-12 00:32:00,19.0,12.0,-100.00,North,5,4.0,6.0,76,0.00,,,0.00,,2013-03-12 05:32:00,
2013-03-12 00:42:00,19.0,12.0,-100.00,North,0,4.0,6.0,77,0.00,,,0.00,,2013-03-12 05:42:00,
2013-03-12 00:52:00,19.0,12.0,-100.00,North,0,4.0,6.0,77,0.00,,,0.00,,2013-03-12 05:52:00,
2013-03-12 01:02:00,19.0,12.0,-100.00,NNW,345,4.0,6.0,78,0.00,,,0.00,,2013-03-12 06:02:00,
2013-03-12 01:12:00,19.0,12.0,-100.00,North,0,6.0,7.0,78,0.00,,,0.00,,2013-03-12 06:12:00,
2013-03-12 01:22:00,19.0,14.0,-100.00,North,0,6.0,7.0,79,0.00,,,0.00,,2013-03-12 06:22:00,
2013-03-12 01:32:00,19.0,14.0,-100.00,NNW,345,5.0,7.0,80,0.00,,,0.00,,2013-03-12 06:32:00,
2013-03-12 01:42:00,19.0,14.0,-100.00,North,0,6.0,8.0,81,0.00,,,0.00,,2013-03-12 06:42:00,
2013-03-12 01:52:00,19.0,14.0,-100.00,NNW,345,7.0,9.0,83,0.00,,,0.00,,2013-03-12 06:52:00,
2013-03-12 02:02:00,19.0,14.0,-100.00,NNW,345,6.0,9.0,84,0.00,,,0.00,,2013-03-12 07:02:00,
2013-03-12 02:12:00,19.0,16.0,-100.00,NNW,330,6.0,9.0,84,0.00,,,0.00,,2013-03-12 07:12:00,
2013-03-12 02:22:00,19.0,16.0,-100.00,NNW,330,6.0,8.0,84,0.00,,,0.00,,2013-03-12 07:22:00,
2013-03-12 02:32:00,19.0,16.0,-100.00,NW,325,6.0,8.0,85,0.00,,,0.00,,2013-03-12 07:32:00,
2013-03-12 02:42:00,19.0,16.0,-100.00,NNW,335,6.0,7.0,85,0.00,,,0.00,,2013-03-12 07:42:00,
2013-03-12 02:52:00,19.0,16.0,-100.00,NNW,340,6.0,9.0,85,0.00,,,0.00,,2013-03-12 07:52:00,
2013-03-12 03:02:00,19.0,16.0,-100.00,North,0,6.0,8.0,85,0.00,,,0.00,,2013-03-12 08:02:00,
2013-03-12 03:12:00,19.0,16.0,-100.00,NNW,345,7.0,9.0,85,0.00,,,0.00,,2013-03-12 08:12:00,
2013-03-12 03:22:00,19.0,16.0,-100.00,North,0,7.0,9.0,85,0.00,,,0.00,,2013-03-12 08:22:00,
2013-03-12 03:32:00,18.0,14.0,-100.00,North,0,6.0,9.0,85,0.00,,,0.00,,2013-03-12 08:32:00,
2013-03-12 03:42:00,18.0,14.0,-100.00,NNW,340,7.0,9.0,85,0.00,,,0.00,,2013-03-12 08:42:00,
2013-03-12 03:52:00,17.0,14.0,-100.00,NNW,335,8.0,9.0,85,0.00,,,0.00,,2013-03-12 08:52:00,
2013-03-12 04:03:00,17.0,14.0,-100.00,NNW,345,7.0,10.0,85,0.00,,,0.00,,2013-03-12 09:03:00,
2013-03-12 04:12:00,17.0,12.0,-100.00,North,0,7.0,10.0,85,0.00,,,0.00,,2013-03-12 09:12:00,
2013-03-12 04:22:00,16.0,12.0,-100.00,NNW,340,7.0,12.0,86,0.00,,,0.00,,2013-03-12 09:22:00,
2013-03-12 04:32:00,16.0,12.0,-100.00,NNW,345,9.0,12.0,86,0.00,,,0.00,,2013-03-12 09:32:00,
2013-03-12 04:42:00,16.0,12.0,-100.00,North,0,7.0,11.0,86,0.00,,,0.00,,2013-03-12 09:42:00,
2013-03-12 04:52:00,16.0,12.0,-100.00,North,0,10.0,12.0,87,0.00,,,0.00,,2013-03-12 09:52:00,
2013-03-12 05:02:00,16.0,12.0,-100.00,North,0,10.0,13.0,86,0.00,,,0.00,,2013-03-12 10:02:00,
2013-03-12 05:12:00,16.0,12.0,-100.00,North,0,9.0,14.0,86,0.00,,,0.00,,2013-03-12 10:12:00,
2013-03-12 05:22:00,16.0,12.0,-100.00,North,0,9.0,13.0,84,0.00,,,0.00,,2013-03-12 10:22:00,
2013-03-12 05:32:00,16.0,12.0,-100.00,North,0,11.0,14.0,83,0.00,,,0.00,,2013-03-12 10:32:00,
2013-03-12 05:42:00,16.0,12.0,-100.00,North,0,11.0,15.0,82,0.00,,,0.00,,2013-03-12 10:42:00,
2013-03-12 05:52:00,16.0,12.0,-100.00,NNW,345,9.0,14.0,82,0.00,,,0.00,,2013-03-12 10:52:00,
2013-03-12 06:02:00,16.0,12.0,-100.00,North,0,9.0,12.0,82,0.00,,,0.00,,2013-03-12 11:02:00,
2013-03-12 06:12:00,16.0,10.0,-100.00,NNW,345,9.0,12.0,82,0.00,,,0.00,,2013-03-12 11:12:00,
2013-03-12 06:22:00,15.0,10.0,-100.00,North,0,9.0,13.0,83,0.00,,,0.00,,2013-03-12 11:22:00,
2013-03-12 06:32:00,15.0,10.0,-100.00,NNW,345,9.0,12.0,84,0.00,,,0.00,,2013-03-12 11:32:00,
2013-03-12 06:42:00,15.0,10.0,-100.00,North,350,9.0,13.0,84,0.00,,,0.00,,2013-03-12 11:42:00,
2013-03-12 06:52:00,14.0,10.0,-100.00,North,0,7.0,13.0,85,0.00,,,0.00,,2013-03-12 11:52:00,
2013-03-12 07:02:00,14.0,10.0,-100.00,North,350,7.0,10.0,85,0.00,,,0.00,,2013-03-12 12:02:00,
2013-03-12 07:12:00,14.0,10.0,-100.00,North,350,7.0,10.0,85,0.00,,,0.00,,2013-03-12 12:12:00,
2013-03-12 07:22:00,14.0,10.0,-100.00,NNW,340,8.0,12.0,86,0.00,,,0.00,,2013-03-12 12:22:00,
2013-03-12 07:32:00,14.0,10.0,-100.00,NNW,340,9.0,12.0,86,0.00,,,0.00,,2013-03-12 12:32:00,
2013-03-12 07:42:00,14.0,10.0,-100.00,NNW,340,8.0,13.0,86,0.00,,,0.00,,2013-03-12 12:42:00,
2013-03-12 07:52:00,14.0,10.0,-100.00,NNW,340,9.0,12.0,86,0.00,,,0.00,,2013-03-12 12:52:00,
2013-03-12 08:02:00,15.0,10.0,-100.00,NNW,330,12.0,13.0,86,0.00,,,0.00,,2013-03-12 13:02:00,
2013-03-12 08:12:00,15.0,10.0,-100.00,NNW,330,11.0,15.0,86,0.00,,,0.00,,2013-03-12 13:12:00,
2013-03-12 08:22:00,15.0,12.0,-100.00,NNW,335,9.0,13.0,86,0.00,,,0.00,,2013-03-12 13:22:00,
2013-03-12 08:32:00,15.0,12.0,-100.00,NNW,330,9.0,13.0,86,0.00,,,0.00,,2013-03-12 13:32:00,
2013-03-12 08:42:00,15.0,12.0,-100.00,NNW,330,9.0,13.0,86,0.00,,,0.00,,2013-03-12 13:42:00,
2013-03-12 08:52:00,15.0,12.0,-100.00,NNW,330,11.0,14.0,86,0.00,,,0.00,,2013-03-12 13:52:00,
2013-03-12 09:02:00,15.0,12.0,-100.00,NNW,330,12.0,15.0,85,0.00,,,0.00,,2013-03-12 14:02:00,
2013-03-12 09:12:00,15.0,12.0,-100.00,NNW,330,11.0,16.0,85,0.00,,,0.00,,2013-03-12 14:12:00,
2013-03-12 09:22:00,16.0,12.0,-100.00,NNW,330,12.0,16.0,84,0.00,,,0.00,,2013-03-12 14:22:00,
2013-03-12 09:32:00,16.0,12.0,-100.00,NNW,335,13.0,19.0,84,0.00,,,0.00,,2013-03-12 14:32:00,
2013-03-12 09:42:00,17.0,12.0,-100.00,NNW,335,13.0,17.0,84,0.00,,,0.00,,2013-03-12 14:42:00,
2013-03-12 09:52:00,17.0,12.0,-100.00,NW,325,14.0,17.0,84,0.00,,,0.00,,2013-03-12 14:52:00,
2013-03-12 10:02:00,17.0,12.0,-100.00,NNW,330,13.0,21.0,83,0.00,,,0.00,,2013-03-12 15:02:00,
2013-03-12 10:12:00,17.0,14.0,-100.00,NNW,335,14.0,19.0,83,0.00,,,0.00,,2013-03-12 15:12:00,
2013-03-12 10:22:00,18.0,14.0,-100.00,NNW,330,15.0,19.0,82,0.00,,,0.00,,2013-03-12 15:22:00,
2013-03-12 10:32:00,18.0,14.0,-100.00,NNW,330,13.0,21.0,81,0.00,,,0.00,,2013-03-12 15:32:00,
2013-03-12 10:42:00,19.0,14.0,-100.00,NNW,330,14.0,18.0,80,0.00,,,0.00,,2013-03-12 15:42:00,
2013-03-12 10:52:00,19.0,14.0,-100.00,NW,325,14.0,19.0,79,0.00,,,0.00,,2013-03-12 15:52:00,
2013-03-12 11:02:00,18.0,14.0,-100.00,NNW,330,16.0,21.0,79,0.00,,,0.00,,2013-03-12 16:02:00,
2013-03-12 11:12:00,19.0,14.0,-100.00,NW,320,16.0,21.0,79,0.00,,,0.00,,2013-03-12 16:12:00,
2013-03-12 11:22:00,19.0,14.0,-100.00,NNW,330,15.0,21.0,78,0.00,,,0.00,,2013-03-12 16:22:00,
2013-03-12 11:33:00,20.0,14.0,-100.00,NW,325,15.0,22.0,78,0.00,,,0.00,,2013-03-12 16:33:00,
2013-03-12 11:42:00,19.0,14.0,-100.00,NNW,330,19.0,23.0,77,0.00,,,0.00,,2013-03-12 16:42:00,
2013-03-12 11:52:00,20.0,14.0,-100.00,NW,325,17.0,25.0,76,0.00,,,0.00,,2013-03-12 16:52:00,
2013-03-12 12:02:00,21.0,14.0,-100.00,NNW,330,15.0,22.0,74,0.00,,,0.00,,2013-03-12 17:02:00,
2013-03-12 12:12:00,21.0,14.0,-100.00,North,350,16.0,27.0,73,0.00,,,0.00,,2013-03-12 17:12:00,
2013-03-12 12:22:00,20.0,14.0,-100.00,NNW,330,21.0,26.0,73,0.00,,,0.00,,2013-03-12 17:22:00,
2013-03-12 12:33:00,21.0,12.0,-100.00,NNW,330,20.0,24.0,71,0.00,,,0.00,,2013-03-12 17:33:00,
2013-03-12 12:43:00,21.0,14.0,-100.00,NNW,335,17.0,22.0,71,0.00,,,0.00,,2013-03-12 17:43:00,
2013-03-12 12:53:00,21.0,12.0,-100.00,NNW,330,21.0,26.0,69,0.00,,,0.00,,2013-03-12 17:53:00,
2013-03-12 13:02:00,21.0,12.0,-100.00,NNW,335,19.0,25.0,68,0.00,,,0.00,,2013-03-12 18:02:00,
2013-03-12 13:12:00,21.0,12.0,-100.00,NNW,330,19.0,25.0,68,0.00,,,0.00,,2013-03-12 18:12:00,
2013-03-12 13:22:00,22.0,12.0,-100.00,NNW,340,16.0,26.0,66,0.00,,,0.00,,2013-03-12 18:22:00,
2013-03-12 13:33:00,21.0,12.0,-100.00,NNW,335,20.0,26.0,66,0.00,,,0.00,,2013-03-12 18:33:00,
2013-03-12 13:42:00,22.0,12.0,-100.00,NNW,330,21.0,28.0,65,0.00,,,0.00,,2013-03-12 18:42:00,
2013-03-12 13:53:00,22.0,12.0,-100.00,NNW,335,21.0,25.0,65,0.00,,,0.00,,2013-03-12 18:53:00,
2013-03-12 14:03:00,22.0,12.0,-100.00,NNW,335,18.0,22.0,64,0.00,,,0.00,,2013-03-12 19:03:00,
2013-03-12 14:13:00,23.0,12.0,-100.00,NNW,345,17.0,24.0,62,0.00,,,0.00,,2013-03-12 19:13:00,
2013-03-12 14:22:00,23.0,12.0,-100.00,NW,320,19.0,23.0,64,0.00,,,0.00,,2013-03-12 19:22:00,
2013-03-12 14:33:00,23.0,14.0,-100.00,NW,325,17.0,27.0,67,0.00,,,0.00,,2013-03-12 19:33:00,
2013-03-12 14:43:00,22.0,12.0,-100.00,NNW,340,23.0,29.0,67,0.00,,,0.00,,2013-03-12 19:43:00,
2013-03-12 14:52:00,22.0,14.0,-100.00,NNW,335,22.0,27.0,68,0.00,,,0.00,,2013-03-12 19:52:00,
2013-03-12 15:02:00,23.0,14.0,-100.00,NW,320,17.0,30.0,69,0.00,,,0.00,,2013-03-12 20:02:00,
2013-03-12 15:22:00,22.0,14.0,-100.00,NW,325,20.0,27.0,69,0.00,,,0.00,,2013-03-12 20:22:00,
2013-03-12 15:32:00,23.0,14.0,-100.00,NNW,330,17.0,24.0,68,0.00,,,0.00,,2013-03-12 20:32:00,
2013-03-12 15:42:00,22.0,12.0,-100.00,NNW,335,17.0,29.0,66,0.00,,,0.00,,2013-03-12 20:42:00,
2013-03-12 15:52:00,22.0,12.0,-100.00,NNW,330,21.0,26.0,67,0.00,,,0.00,,2013-03-12 20:52:00,
2013-03-12 16:02:00,22.0,12.0,-100.00,NNW,330,21.0,27.0,67,0.00,,,0.00,,2013-03-12 21:02:00,
2013-03-12 16:12:00,22.0,12.0,-100.00,NNW,335,21.0,28.0,68,0.00,,,0.00,,2013-03-12 21:12:00,
2013-03-12 16:22:00,22.0,14.0,-100.00,NNW,330,17.0,26.0,69,0.00,,,0.00,,2013-03-12 21:22:00,
2013-03-12 16:32:00,21.0,12.0,-100.00,NNW,330,24.0,30.0,69,0.00,,,0.00,,2013-03-12 21:32:00,
2013-03-12 16:43:00,22.0,12.0,-100.00,NNW,335,17.0,27.0,68,0.00,,,0.00,,2013-03-12 21:43:00,
2013-03-12 16:52:00,22.0,12.0,-100.00,NNW,335,18.0,29.0,68,0.00,,,0.00,,2013-03-12 21:52:00,
2013-03-12 17:02:00,22.0,12.0,-100.00,NNW,335,21.0,26.0,68,0.00,,,0.00,,2013-03-12 22:02:00,
2013-03-12 17:12:00,22.0,12.0,-100.00,NNW,330,19.0,26.0,68,0.00,,,0.00,,2013-03-12 22:12:00,
2013-03-12 17:22:00,22.0,12.0,-100.00,NNW,340,15.0,24.0,67,0.00,,,0.00,,2013-03-12 22:22:00,
2013-03-12 17:33:00,22.0,12.0,-100.00,North,0,17.0,24.0,63,0.00,,,0.00,,2013-03-12 22:33:00,
2013-03-12 17:42:00,22.0,12.0,-100.00,NNW,330,18.0,24.0,63,0.00,,,0.00,,2013-03-12 22:42:00,
2013-03-12 17:52:00,22.0,12.0,-100.00,NNW,345,17.0,24.0,62,0.00,,,0.00,,2013-03-12 22:52:00,
2013-03-12 18:02:00,22.0,10.0,-100.00,North,0,21.0,27.0,60,0.00,,,0.00,,2013-03-12 23:02:00,
2013-03-12 18:12:00,22.0,12.0,-100.00,NNW,335,17.0,24.0,66,0.00,,,0.00,,2013-03-12 23:12:00,
2013-03-12 18:22:00,22.0,12.0,-100.00,NNW,345,17.0,24.0,65,0.00,,,0.00,,2013-03-12 23:22:00,
2013-03-12 18:34:00,21.0,12.0,-100.00,NNW,335,17.0,27.0,67,0.00,,,0.00,,2013-03-12 23:34:00,
2013-03-12 18:43:00,21.0,12.0,-100.00,North,350,17.0,21.0,67,0.00,,,0.00,,2013-03-12 23:43:00,
2013-03-12 18:52:00,21.0,10.0,-100.00,NNW,345,14.0,24.0,66,0.00,,,0.00,,2013-03-12 23:52:00,
2013-03-12 19:02:00,20.0,12.0,-100.00,North,0,15.0,21.0,67,0.00,,,0.00,,2013-03-13 00:02:00,
2013-03-12 19:12:00,20.0,10.0,-100.00,NNW,340,15.0,21.0,67,0.00,,,0.00,,2013-03-13 00:12:00,
2013-03-12 19:22:00,20.0,10.0,-100.00,NNW,340,13.0,21.0,68,0.00,,,0.00,,2013-03-13 00:22:00,
2013-03-12 19:33:00,20.0,12.0,-100.00,NNW,340,18.0,24.0,70,0.00,,,0.00,,2013-03-13 00:33:00,
2013-03-12 19:42:00,19.0,12.0,-100.00,NNW,345,17.0,23.0,71,0.00,,,0.00,,2013-03-13 00:42:00,
2013-03-12 19:52:00,19.0,10.0,-100.00,NNW,345,13.0,22.0,71,0.00,,,0.00,,2013-03-13 00:52:00,
2013-03-12 20:02:00,19.0,10.0,-100.00,NNW,340,17.0,24.0,71,0.00,,,0.00,,2013-03-13 01:02:00,
2013-03-12 20:12:00,19.0,10.0,-100.00,NNW,340,17.0,24.0,72,0.00,,,0.00,,2013-03-13 01:12:00,
2013-03-12 20:22:00,18.0,10.0,-100.00,North,350,16.0,26.0,73,0.00,,,0.00,,2013-03-13 01:22:00,
2013-03-12 20:32:00,18.0,10.0,-100.00,NNW,335,13.0,21.0,74,0.00,,,0.00,,2013-03-13 01:32:00,
2013-03-12 20:42:00,18.0,10.0,-100.00,North,355,13.0,18.0,74,0.00,,,0.00,,2013-03-13 01:42:00,
2013-03-12 20:52:00,17.0,10.0,-100.00,NNW,345,14.0,21.0,75,0.00,,,0.00,,2013-03-13 01:52:00,
2013-03-12 21:02:00,17.0,10.0,-100.00,NNW,340,13.0,20.0,75,0.00,,,0.00,,2013-03-13 02:02:00,
2013-03-12 21:12:00,17.0,10.0,-100.00,NNW,335,12.0,18.0,76,0.00,,,0.00,,2013-03-13 02:12:00,
2013-03-12 21:22:00,17.0,10.0,-100.00,NNW,335,12.0,21.0,77,0.00,,,0.00,,2013-03-13 02:22:00,
2013-03-12 21:32:00,17.0,10.0,-100.00,NNW,345,14.0,19.0,78,0.00,,,0.00,,2013-03-13 02:32:00,
2013-03-12 21:42:00,16.0,10.0,-100.00,NNW,335,14.0,19.0,78,0.00,,,0.00,,2013-03-13 02:42:00,
2013-03-12 21:52:00,16.0,10.0,-100.00,NNW,345,11.0,19.0,79,0.00,,,0.00,,2013-03-13 02:52:00,
2013-03-12 22:02:00,16.0,10.0,-100.00,North,0,13.0,19.0,79,0.00,,,0.00,,2013-03-13 03:02:00,
2013-03-12 22:12:00,15.0,10.0,-100.00,North,350,13.0,19.0,79,0.00,,,0.00,,2013-03-13 03:12:00,
2013-03-12 22:22:00,15.0,10.0,-100.00,North,350,13.0,18.0,80,0.00,,,0.00,,2013-03-13 03:22:00,
2013-03-12 22:32:00,15.0,10.0,-100.00,North,0,12.0,19.0,81,0.00,,,0.00,,2013-03-13 03:32:00,
2013-03-12 22:42:00,15.0,10.0,-100.00,North,0,11.0,17.0,81,0.00,,,0.00,,2013-03-13 03:42:00,
2013-03-12 22:52:00,15.0,10.0,-100.00,North,350,11.0,14.0,82,0.00,,,0.00,,2013-03-13 03:52:00,
2013-03-12 23:02:00,15.0,10.0,-100.00,NNW,345,10.0,14.0,83,0.00,,,0.00,,2013-03-13 04:02:00,
2013-03-12 23:13:00,14.0,10.0,-100.00,North,350,10.0,14.0,83,0.00,,,0.00,,2013-03-13 04:13:00,
2013-03-12 23:22:00,15.0,10.0,-100.00,NNW,340,12.0,17.0,84,0.00,,,0.00,,2013-03-13 04:22:00,
2013-03-12 23:32:00,15.0,10.0,-100.00,NNW,340,11.0,17.0,84,0.00,,,0.00,,2013-03-13 04:32:00,
2013-03-12 23:42:00,15.0,10.0,-100.00,North,0,13.0,17.0,84,0.00,,,0.00,,2013-03-13 04:42:00,
2013-03-12 23:52:00,15.0,10.0,-100.00,NNW,340,12.0,17.0,84,0.00,,,0.00,,2013-03-13 04:52:00,